Change the Weather History Date:

Monday, December 2, 2013

  Actual Average Record
Temperature  
Mean Temperature 56 °F 45 °F  
Max Temperature 66 °F 55 °F 78 °F (2012)
Min Temperature 45 °F 34 °F 15 °F (1985)
Degree Days  
Heating Degree Days 9 20  
Month to date heating degree days 22 40  
Since 1 July heating degree days 612 605  
Growing Degree Days 6 (Base 50)    
Moisture  
Dew Point 48 °F    
Average Humidity 77    
Maximum Humidity 93    
Minimum Humidity 60    
Precipitation  
Precipitation 0.00 in 0.13 in 2.46 in (1982)
Month to date precipitation 0.00 0.26  
Year to date precipitation 42.95 42.43  
Sea Level Pressure  
Sea Level Pressure 29.77 in    
Wind  
Wind Speed 2 mph (West)    
Max Wind Speed 8 mph    
Max Gust Speed 10 mph    
Visibility 6 miles    
Events      
T = Trace of Precipitation, MM = Missing Value Source: NWS Daily Summary

Daily Weather History Graph

Daily Weather History Graph

Search for Another Location

Airport or City:

Trip Planner

Search our weather history database for the weather conditions in past years. The results will help you decide how hot, cold, wet, or windy it might be!

Date:

Astronomy

Dec. 02, 2013 Rise Set
Actual Time 7:09 AM CST 5:04 PM CST
Civil Twilight 6:41 AM CST 5:32 PM CST
Nautical Twilight 6:09 AM CST 6:04 PM CST
Astronomical Twilight 5:38 AM CST 6:34 PM CST
Moon 6:36 AM CST (12/2) 5:07 PM CST (12/2)
Length of Visible Light 10h 51m
Length of Day
9h 55m
Waning Crescent, 0% of the Moon is Illuminated
Dec 2
Waning Crescent
Dec 2
New
Dec 9
First Quarter
Dec 17
Full
Dec 25
Last Quarter

Hourly Weather History & Observations

Time (CST) Temp. Dew Point Humidity Pressure Visibility Wind Dir Wind Speed Gust Speed Precip Events Conditions
12:04 AM 51.8 °F 48.2 °F 88% 29.89 in 8.0 mi Calm Calm - N/A   Overcast
12:53 AM 52.0 °F 48.0 °F 86% 29.88 in 9.0 mi Calm Calm - N/A   Overcast
1:51 AM 51.8 °F 48.2 °F 88% 29.85 in 8.0 mi Calm Calm - N/A   Scattered Clouds
1:53 AM 52.0 °F 48.0 °F 86% 29.85 in 8.0 mi ENE 3.5 mph - N/A   Scattered Clouds
2:26 AM 51.8 °F 48.2 °F 88% 29.85 in 8.0 mi Calm Calm - N/A   Overcast
2:50 AM 51.8 °F 48.2 °F 88% 29.85 in 7.0 mi Calm Calm - N/A   Overcast
2:53 AM 51.1 °F 48.0 °F 89% 29.85 in 7.0 mi Calm Calm - N/A   Overcast
3:53 AM 52.0 °F 48.0 °F 86% 29.83 in 8.0 mi Calm Calm - N/A   Overcast
4:53 AM 52.0 °F 48.0 °F 86% 29.81 in 7.0 mi Calm Calm - N/A   Overcast
5:53 AM 51.1 °F 48.0 °F 89% 29.82 in 6.0 mi Calm Calm - N/A   Overcast
6:53 AM 48.9 °F 46.9 °F 93% 29.81 in 6.0 mi Calm Calm - N/A   Overcast
7:02 AM 48.2 °F 46.4 °F 93% 29.80 in 4.0 mi Calm Calm - N/A   Overcast
7:14 AM 48.2 °F 46.4 °F 93% 29.81 in 2.5 mi Calm Calm - N/A   Overcast
7:25 AM 48.2 °F 46.4 °F 93% 29.81 in 6.0 mi Calm Calm - N/A   Mostly Cloudy
7:32 AM 48.2 °F 46.4 °F 93% 29.81 in 6.0 mi Calm Calm - N/A   Scattered Clouds
7:53 AM 48.0 °F 46.0 °F 93% 29.81 in 6.0 mi Calm Calm - N/A   Partly Cloudy
8:33 AM 51.8 °F 48.2 °F 88% 29.81 in 3.0 mi Calm Calm - N/A   Mostly Cloudy
8:53 AM 50.0 °F 46.9 °F 89% 29.81 in 4.0 mi SW 3.5 mph - N/A   Overcast
9:12 AM 50.0 °F 46.4 °F 87% 29.79 in 2.0 mi SW 3.5 mph - N/A   Mostly Cloudy
9:22 AM 51.8 °F 46.4 °F 82% 29.79 in 3.0 mi West 3.5 mph - N/A   Mostly Cloudy
9:53 AM 54.0 °F 48.0 °F 80% 29.79 in 3.0 mi West 3.5 mph - N/A   Haze
10:00 AM 55.4 °F 48.2 °F 77% 29.79 in 6.0 mi Calm Calm - N/A   Haze
10:53 AM 57.0 °F 50.0 °F 77% 29.80 in 6.0 mi West 8.1 mph - N/A   Haze
11:53 AM 57.9 °F 50.0 °F 75% 29.76 in 7.0 mi SW 3.5 mph - N/A   Clear
12:53 PM - - N/A% 29.73 in - North - - N/A   Unknown
1:53 PM 64.0 °F 50.0 °F 60% 29.70 in 9.0 mi Variable 3.5 mph - N/A   Unknown
1:56 PM 64.4 °F 50.0 °F 59% 29.71 in 0.8 mi Calm Calm - N/A   Haze
2:06 PM 64.4 °F 50.0 °F 59% 29.70 in 2.5 mi NW 4.6 mph - N/A   Haze
2:13 PM 66.2 °F 50.0 °F 56% 29.70 in 10.0 mi NNW 3.5 mph - N/A   Clear
2:53 PM 64.0 °F 51.1 °F 63% 29.68 in 10.0 mi WSW 4.6 mph - N/A   Clear
3:53 PM 63.0 °F 51.1 °F 65% 29.68 in 10.0 mi West 5.8 mph - N/A   Clear
4:53 PM 60.1 °F 50.0 °F 69% 29.69 in 10.0 mi West 4.6 mph - N/A   Clear
5:53 PM 55.9 °F 48.9 °F 77% 29.69 in 10.0 mi Calm Calm - N/A   Clear
6:53 PM 50.0 °F 48.0 °F 93% 29.70 in 8.0 mi Calm Calm - N/A   Clear
7:53 PM 50.0 °F 46.9 °F 89% 29.70 in 6.0 mi Calm Calm - N/A   Clear
8:53 PM 48.9 °F 46.9 °F 93% 29.70 in 6.0 mi Calm Calm - N/A   Clear
9:42 PM 46.4 °F 44.6 °F 93% 29.70 in 1.8 mi Calm Calm - N/A   Clear
9:53 PM 48.0 °F 46.0 °F 93% 29.70 in 4.0 mi Calm Calm - N/A   Clear
10:53 PM 48.0 °F 45.0 °F 89% 29.70 in 4.0 mi NNE 3.5 mph - N/A   Clear
11:53 PM 48.0 °F 45.0 °F 89% 29.70 in 5.0 mi Calm Calm - N/A   Clear